GW3496 Weather Reports


time (UTC)temp
F
wind
direction
speed
knots
gust
knots
rain 1hr
in
rain 24hr
in
rain mn
in
humidity
%
barometer
mb
20260505011540 72 182 2.6 5.2 0.00 0.00 0.00 42 1008.7
20260505010033 73 195 5.2 10.4 0.00 0.00 0.00 41 1008.6
20260505004535 73 217 5.2 7.8 0.00 0.00 0.00 40 1008.5
20260505003035 74 183 6.1 10.4 0.00 0.00 0.00 39 1008.2
20260505001542 74 213 6.1 10.4 0.00 0.00 0.00 38 1008.5
20260505000035 74 209 8.7 14.8 0.00 0.00 0.00 38 1008.5
20260504234541 75 159 7.0 14.8 0.00 0.00 0.00 38 1008.2
20260504233035 75 207 7.0 12.2 0.00 0.00 0.00 37 1008.1
20260504231531 76 175 9.6 15.6 0.00 0.00 0.00 37 1008.0
20260504230035 76 217 8.7 14.8 0.00 0.00 0.00 36 1007.9
20260504224538 77 198 6.1 12.2 0.00 0.00 0.00 36 1008.2
20260504223035 77 245 9.6 14.8 0.00 0.00 0.00 35 1008.1
20260504221535 77 235 12.2 20.0 0.00 0.00 0.00 35 1008.2
20260504220034 77 240 7.0 13.9 0.00 0.00 0.00 35 1008.2
20260504214535 77 237 9.6 13.9 0.00 0.00 0.00 35 1008.3
20260504213033 77 161 11.3 20.0 0.00 0.00 0.00 35 1008.3
20260504211539 77 199 9.6 22.6 0.00 0.00 0.00 34 1008.3
20260504210055 76 169 7.8 14.8 0.00 0.00 0.00 34 1008.2
20260504204551 77 76 6.1 20.9 0.00 0.00 0.00 33 1008.3
20260504203041 77 247 7.0 17.4 0.00 0.00 0.00 33 1008.4
20260504201535 76 213 11.3 16.5 0.00 0.00 0.00 33 1008.6
20260504200042 75 190 9.6 17.4 0.00 0.00 0.00 34 1008.6
20260504194539 75 189 11.3 18.2 0.00 0.00 0.00 35 1008.6
20260504193039 77 217 10.4 16.5 0.00 0.00 0.00 32 1008.9
20260504191535 76 208 7.8 19.1 0.00 0.00 0.00 32 1008.9
20260504190035 76 192 9.6 20.9 0.00 0.00 0.00 32 1008.9
20260504184535 76 227 7.8 17.4 0.00 0.00 0.00 32 1009.4
20260504183040 75 202 11.3 20.0 0.00 0.00 0.00 33 1009.7
20260504181534 75 188 11.3 16.5 0.00 0.00 0.00 32 1010.0
20260504180039 74 228 7.8 19.1 0.00 0.00 0.00 32 1010.2
20260504174534 74 252 12.2 18.2 0.00 0.00 0.00 32 1010.3
20260504173046 74 215 8.7 14.8 0.00 0.00 0.00 32 1010.5
20260504171540 73 219 6.1 13.0 0.00 0.00 0.00 33 1011.0
20260504081547 51 153 0.9 5.2 0.00 0.00 0.00 61 1013.6
20260504044532 52 142 0.0 0.0 0.00 0.00 0.00 65 1013.5
20260504043032 51 139 0.0 0.0 0.00 0.00 0.00 66 1013.4
20260504041542 51 126 0.0 0.0 0.00 0.00 0.00 67 1013.4
20260504040039 52 128 0.0 0.0 0.00 0.00 0.00 66 1013.5
20260504034541 52 117 0.0 0.0 0.00 0.00 0.00 64 1013.5
20260504033030 52 117 0.0 0.0 0.00 0.00 0.00 61 1013.4
20260504031535 53 117 0.0 0.0 0.00 0.00 0.00 60 1013.6
20260504030037 53 117 0.0 0.0 0.00 0.00 0.00 58 1013.3
20260504024531 54 117 0.0 0.0 0.00 0.00 0.00 56 1013.4
20260504023031 54 117 0.0 0.0 0.00 0.00 0.00 56 1013.5
20260504021532 55 117 0.0 0.0 0.00 0.00 0.00 54 1013.0
20260504020037 55 121 0.0 0.0 0.00 0.00 0.00 54 1013.0
20260504014535 57 95 0.0 0.0 0.00 0.00 0.00 48 1013.0
20260504013042 58 161 0.0 2.6 0.00 0.00 0.00 45 1013.0